Tracking 29892 objects as of 21-Nov-2024
HD Live streaming from Space Station
objects crossing your sky now

STARLINK-30277

Track STARLINK-30277 now!
10-day predictions
STARLINK-30277 is classified as:


NORAD ID: 57645
Int'l Code: 2023-122P
Perigee: 493.9 km
Apogee: 496.5 km
Inclination: 43.0 °
Period: 94.4 minutes
Semi major axis: 6866 km
RCS: Unknown
Launch date: August 17, 2023
Source: United States (US)
Launch site: AIR FORCE EASTERN TEST RANGE (AFETR)
Your satellite tracking list
Your tracking list is empty




NASA's NSSDC Master Catalog

Two Line Element Set (TLE):
1 57645U 23122P   24325.88760202  .00000180  00000-0  16747-4 0  9994
2 57645  43.0053 102.8649 0001851 270.0225  90.0414 15.25909751 71456
Source of the keplerian elements: AFSPC